Location: ?????????
(53.2086°N, 54.0693°E)
Time: 10:29:17
(UTC+00:00)

Cosmos 1269 Rocket - Pass Details

Date: 08 December 2019
Orbit: 773 x 778 km, 74.1° (Epoch: 27 January)

Event Time Altitude Azimuth Distance (km) Brightness Sun altitude
Rises 13:05:32 0° 194° (SSW) 3,249 7.9 -8.2°
Reaches altitude 10° 13:07:55 10° 192° (SSW) 2,326 7.1 -8.6°
Maximum altitude 13:13:09 66° 111° (ESE) 851 4.1 -9.3°
Drops below altitude 10° 13:18:25 10° 30° (NNE) 2,340 6.0 -10.0°
Enters shadow 13:19:08 - 29° (NNE) 2,616 6.3 -10.1°
